Location: Manitoulin Island
(45.7026°N, 82.0372°W)
Time: 14:12:27
(UTC-04:00)

ISS - Visible Passes

Search period start: 06 July 2020 00:00
Search period end: 16 July 2020 00:00
Orbit: 417 x 421 km, 51.6° (Epoch: 06 July)

Date Brightness Start Highest point End Pass type
(mag) Time Alt. Az. Time Alt. Az. Time Alt. Az.
06 Jul -1.6 02:02:42 18° E 02:02:42 18° E 02:03:50 10° ENE visible
06 Jul -3.1 03:35:38 22° W 03:37:31 52° NNW 03:40:50 10° ENE visible
07 Jul -3.7 02:49:28 63° W 02:49:52 74° NNW 02:53:14 10° ENE visible
07 Jul -1.9 04:24:00 10° WNW 04:27:01 30° N 04:30:02 10° ENE visible
08 Jul -2.8 02:03:16 41° ENE 02:03:16 41° ENE 02:05:36 10° ENE visible
08 Jul -2.1 03:36:11 10° WNW 03:39:15 33° NNW 03:42:22 10° NE visible
09 Jul -1.5 01:16:59 17° ENE 01:16:59 17° ENE 01:17:53 10° ENE visible
09 Jul -2.5 02:49:53 23° WNW 02:51:30 40° NNW 02:54:43 10° NE visible
09 Jul -1.7 04:25:52 10° WNW 04:28:51 28° N 04:31:49 10° ENE visible
10 Jul -3.1 02:03:31 51° NW 02:03:46 52° NNW 02:07:04 10° ENE visible
10 Jul -1.7 03:38:03 10° WNW 03:41:02 28° N 03:44:01 10° ENE visible
11 Jul -2.8 01:17:00 43° NE 01:17:00 43° NE 01:19:26 10° ENE visible
11 Jul -1.8 02:50:12 10° WNW 02:53:13 30° N 02:56:14 10° ENE visible
11 Jul -2.0 04:27:27 10° NW 04:30:35 35° NNE 04:33:43 10° E visible
12 Jul -2.0 00:30:15 24° ENE 00:30:15 24° ENE 00:31:45 10° ENE visible
12 Jul -2.0 02:03:07 15° WNW 02:05:25 33° NNW 02:08:31 10° NE visible
12 Jul -1.8 03:39:44 10° NW 03:42:47 31° N 03:45:49 10° ENE visible
12 Jul -1.9 23:42:51 19° ENE 23:42:51 19° ENE 23:44:00 10° ENE visible
13 Jul -2.4 01:15:38 19° WNW 01:17:36 40° NNW 01:20:49 10° NE visible
13 Jul -1.6 02:51:58 10° WNW 02:54:57 28° N 02:57:56 10° ENE visible
13 Jul -3.1 04:28:51 10° WNW 04:32:11 58° NNE 04:35:30 10° ESE visible
13 Jul -3.0 22:50:12 10° SSW 22:53:10 29° SE 22:56:09 10° ENE visible
14 Jul -3.0 00:26:32 10° W 00:29:50 53° NNW 00:33:09 10° ENE visible
14 Jul -1.6 02:04:07 10° WNW 02:07:06 28° N 02:10:05 10° ENE visible
14 Jul -2.5 03:41:11 10° NW 03:44:25 43° NNE 03:47:39 10° E visible
14 Jul -2.3 22:03:11 10° S 22:05:37 19° SE 22:08:04 10° E visible
14 Jul -3.6 23:38:44 10° WSW 23:42:05 75° NNW 23:45:27 10° ENE visible
15 Jul -1.7 01:16:14 10° WNW 01:19:14 30° N 01:22:16 10° ENE visible
15 Jul -2.1 02:53:28 10° NW 02:56:37 35° NNE 02:59:44 10° E visible
15 Jul -3.8 04:30:14 10° WNW 04:33:35 65° SSW 04:36:54 10° SE visible
15 Jul -3.9 22:51:01 10° SW 22:54:22 74° SSE 22:57:44 10° ENE visible
